Baton Rouge, LA

11:21 PM CDT on August 25, 2016 (GMT -0500)
Baton Rouge Metro-Ryan

Weather History for KBTR - December, 2012

Change the Weather History Date:

Wednesday, December 26, 2012

  Actual Average Record
Temperature  
Mean Temperature 42 °F 52 °F  
Max Temperature 47 °F 63 °F 84 °F (2015)
Min Temperature 37 °F 42 °F 15 °F (1983)
Degree Days  
Heating Degree Days 23 14  
Month to date heating degree days 187 311  
Since 1 July heating degree days 484 546  
Cooling Degree Days 0 1  
Month to date cooling degree days 16 26  
Year to date cooling degree days 2960 2827  
Moisture  
Dew Point 33 °F    
Average Humidity 73    
Maximum Humidity 82    
Minimum Humidity 64    
Precipitation  
Precipitation 0.00 in 0.19 in 2.89 in (1982)
Month to date precipitation 6.53 4.67  
Year to date precipitation 62.24 59.72  
Snow  
Snow 0.00 in - - ()
Month to date snowfall 0.0  
Since 1 July snowfall 0.0  
Snow Depth 0.00 in    
Sea Level Pressure  
Sea Level Pressure 30.06 in    
Wind  
Wind Speed 9 mph (NW)    
Max Wind Speed 22 mph    
Max Gust Speed 30 mph    
Visibility 10 miles    
Events      
T = Trace of Precipitation, MM = Missing Value Source: NWS Daily Summary

Daily Weather History Graph

Daily Weather History Graph

Search for Another Location

Airport or City:

Trip Planner

Search our weather history database for the weather conditions in past years. The results will help you decide how hot, cold, wet, or windy it might be!

Date:

Astronomy

Dec. 26, 2012 Rise Set
Actual Time 7:00 AM CST 5:11 PM CST
Civil Twilight 6:33 AM CST 5:37 PM CST
Nautical Twilight 6:03 AM CST 6:07 PM CST
Astronomical Twilight 5:34 AM CST 6:36 PM CST
Moon 4:02 PM CST 5:25 AM CST
Length of Visible Light 11h 04m
Length of Day
10h 11m
Waxing Gibbous, 97% of the Moon is Illuminated
Dec 26
Waxing Gibbous
Dec 28
Full
Jan 4
Last Quarter
Jan 11
New
Jan 18
First Quarter

Hourly Weather History & Observations

Time (CST) Temp. Windchill Dew Point Humidity Pressure Visibility Wind Dir Wind Speed Gust Speed Precip Events Conditions
12:11 AM 42.8 °F 35.8 °F 33.8 °F 70% 29.84 in 10.0 mi WNW 13.8 mph 26.5 mph N/A   Overcast
12:53 AM 42.1 °F 34.5 °F 32.0 °F 67% 29.87 in 10.0 mi WNW 15.0 mph 27.6 mph N/A   Overcast
1:16 AM 41.0 °F 33.9 °F 32.0 °F 70% 29.88 in 10.0 mi WNW 12.7 mph 24.2 mph N/A   Scattered Clouds
1:53 AM 39.9 °F 31.8 °F 32.0 °F 73% 29.89 in 10.0 mi WNW 15.0 mph 28.8 mph N/A   Overcast
2:11 AM 39.2 °F 32.5 °F 32.0 °F 75% 29.90 in 10.0 mi WNW 10.4 mph 19.6 mph N/A   Overcast
2:53 AM 39.2 °F 31.6 °F 32.0 °F 75% 29.92 in 10.0 mi WNW 12.7 mph 20.7 mph N/A   Overcast
3:53 AM 39.0 °F 31.8 °F 30.0 °F 70% 29.94 in 10.0 mi NW 11.5 mph 17.3 mph N/A   Overcast
4:53 AM 39.0 °F 33.4 °F 30.0 °F 70% 29.96 in 10.0 mi NW 8.1 mph 19.6 mph N/A   Overcast
5:53 AM 39.0 °F 31.8 °F 28.9 °F 67% 29.99 in 10.0 mi NW 11.5 mph 23.0 mph N/A   Overcast
6:53 AM 39.0 °F 34.0 °F 30.0 °F 70% 30.03 in 10.0 mi NW 6.9 mph - N/A   Overcast
7:53 AM 39.9 °F 35.8 °F 32.0 °F 73% 30.06 in 10.0 mi NW 5.8 mph - N/A   Overcast
8:53 AM 39.9 °F 32.9 °F 30.9 °F 70% 30.09 in 10.0 mi NW 11.5 mph 20.7 mph N/A   Overcast
9:53 AM 41.0 °F 34.3 °F 30.9 °F 67% 30.12 in 10.0 mi NW 11.5 mph 17.3 mph N/A   Overcast
10:53 AM 41.0 °F 33.5 °F 32.0 °F 70% 30.14 in 10.0 mi NW 13.8 mph 18.4 mph N/A   Overcast
11:53 AM 42.1 °F 36.1 °F 33.1 °F 70% 30.12 in 10.0 mi NW 10.4 mph 20.7 mph N/A   Overcast
12:53 PM 43.0 °F 37.7 °F 34.0 °F 71% 30.10 in 10.0 mi NW 9.2 mph - N/A   Overcast
1:53 PM 45.0 °F 41.2 °F 34.0 °F 65% 30.09 in 10.0 mi NNW 6.9 mph - N/A   Scattered Clouds
2:06 PM 44.6 °F 40.2 °F 35.6 °F 71% 30.09 in 10.0 mi West 8.1 mph - N/A   Mostly Cloudy
2:53 PM 46.0 °F 42.5 °F 35.1 °F 66% 30.09 in 10.0 mi WNW 6.9 mph - N/A   Mostly Cloudy
3:00 PM 46.4 °F 41.1 °F 35.6 °F 66% 30.09 in 10.0 mi WNW 11.5 mph - N/A   Scattered Clouds
3:53 PM 46.0 °F 43.1 °F 35.1 °F 66% 30.10 in 10.0 mi Variable 5.8 mph - N/A   Clear
4:53 PM 43.0 °F 37.7 °F 35.1 °F 74% 30.12 in 10.0 mi WNW 9.2 mph - N/A   Scattered Clouds
5:00 PM 42.8 °F 37.5 °F 35.6 °F 76% 30.12 in 10.0 mi WNW 9.2 mph - N/A   Mostly Cloudy
5:53 PM 39.9 °F 35.1 °F 34.0 °F 79% 30.15 in 10.0 mi North 6.9 mph - N/A   Scattered Clouds
6:19 PM 39.2 °F 34.2 °F 33.8 °F 81% 30.15 in 10.0 mi NNW 6.9 mph - N/A   Mostly Cloudy
6:53 PM 39.0 °F 34.0 °F 33.1 °F 79% 30.16 in 10.0 mi NNW 6.9 mph - N/A   Overcast
7:53 PM 39.0 °F 36.8 °F 33.1 °F 79% 30.17 in 10.0 mi Variable 3.5 mph - N/A   Overcast
8:53 PM 39.0 °F 34.8 °F 33.1 °F 79% 30.18 in 10.0 mi NNE 5.8 mph - N/A   Overcast
9:53 PM 37.9 °F 34.4 °F 32.0 °F 79% 30.18 in 10.0 mi NNE 4.6 mph - N/A   Overcast
10:53 PM 37.9 °F 34.4 °F 32.0 °F 79% 30.18 in 10.0 mi North 4.6 mph - N/A   Overcast
11:53 PM 37.9 °F 33.5 °F 32.0 °F 79% 30.17 in 10.0 mi NNE 5.8 mph - N/A   Overcast